Weather History for LHPA - September, 2013

Change the Weather History Date:

Monday, September 9, 2013

  Actual Average Record
Temperature  
Mean Temperature 64 °F -  
Max Temperature 69 °F - - ()
Min Temperature 59 °F - - ()
Degree Days  
Heating Degree Days 1    
Growing Degree Days 14 (Base 50)    
Moisture  
Dew Point 52 °F    
Average Humidity 68    
Maximum Humidity 100    
Minimum Humidity 35    
Precipitation  
Precipitation 0.00 in - - ()
Sea Level Pressure  
Sea Level Pressure 30.06 in    
Wind  
Wind Speed 8 mph ()    
Max Wind Speed 13 mph    
Max Gust Speed -    
Visibility 6.1 miles    
Events Rain    
T = Trace of Precipitation, MM = Missing Value Source: Averaged Metar Reports

Daily Weather History Graph

Daily Weather History Graph

Search for Another Location

Airport or City:

Trip Planner

Search our weather history database for the weather conditions in past years. The results will help you decide how hot, cold, wet, or windy it might be!

Date:

Astronomy

Sep. 09, 2013 Rise Set
Actual Time 6:19 AM CEST 7:14 PM CEST
Civil Twilight 5:48 AM CEST 7:45 PM CEST
Nautical Twilight 5:10 AM CEST 8:22 PM CEST
Astronomical Twilight 4:31 AM CEST 9:01 PM CEST
Moon 10:42 AM CEST (9/9) 8:56 PM CEST (9/9)
Length of Visible Light 13h 57m
Length of Day
12h 54m
Waxing Crescent, 16% of the Moon is Illuminated
Sep 9
Waxing Crescent
Sep 12
First Quarter
Sep 19
Full
Sep 27
Last Quarter
Oct 5
New

Hourly Weather History & Observations

Time (CEST) Temp. Dew Point Humidity Pressure Visibility Wind Dir Wind Speed Gust Speed Precip Events Conditions
12:15 AM 62.6 °F 44.6 °F 52% 30.06 in - SSE 6.7 mph - N/A   Clear
12:45 AM 68.0 °F 41.0 °F 37% 30.06 in - SSE 6.7 mph - N/A   Clear
1:15 AM 68.0 °F 41.0 °F 37% 30.04 in - SE 8.9 mph - N/A   Clear
1:45 AM 68.0 °F 41.0 °F 37% 30.04 in - SE 11.2 mph - N/A   Clear
2:15 AM 69.8 °F 41.0 °F 35% 30.04 in - SSE 13.4 mph - N/A   Clear
2:45 AM 68.0 °F 42.8 °F 40% 30.04 in - SE 11.2 mph - N/A   Clear
3:15 AM 68.0 °F 42.8 °F 40% 30.01 in - SSE 13.4 mph - N/A   Clear
3:45 AM 68.0 °F 41.0 °F 37% 30.01 in - SE 13.4 mph - N/A   Clear
4:15 AM 68.0 °F 41.0 °F 37% 29.98 in - SE 13.4 mph - N/A   Clear
4:45 AM 68.0 °F 41.0 °F 37% 29.98 in - SSE 8.9 mph - N/A   Clear
5:15 AM 68.0 °F 41.0 °F 37% 29.98 in - SE 13.4 mph - N/A   Clear
5:45 AM 66.2 °F 41.0 °F 40% 29.98 in - SSE 8.9 mph - N/A   Clear
6:15 AM 66.2 °F 41.0 °F 40% 29.98 in - SSE 8.9 mph - N/A   Clear
6:45 AM 68.0 °F 41.0 °F 37% 29.98 in - SSE 11.2 mph - N/A   Clear
7:15 AM 68.0 °F 41.0 °F 37% 29.98 in - SSE 11.2 mph - N/A   Clear
7:20 AM 68.0 °F 41.0 °F 37% 29.98 in 6.2 mi SSE 11.2 mph - N/A Rain Light Rain
7:45 AM 64.4 °F 44.6 °F 49% 29.98 in 6.2 mi SSE 11.2 mph - N/A Rain Light Rain
8:15 AM 62.6 °F 50.0 °F 63% 30.01 in 6.2 mi South 11.2 mph - N/A Rain Light Rain
8:45 AM 62.6 °F 50.0 °F 63% 30.01 in 6.2 mi South 11.2 mph - N/A Rain Light Rain
9:15 AM 60.8 °F 51.8 °F 72% 30.04 in 6.2 mi South 8.9 mph - N/A Rain Light Rain
9:45 AM 59.0 °F 55.4 °F 88% 30.04 in 5.0 mi South 8.9 mph - N/A Rain Light Rain
10:15 AM 60.8 °F 57.2 °F 88% 30.04 in 5.0 mi SSW 2.2 mph - N/A Rain Light Rain
10:45 AM 60.8 °F 59.0 °F 94% 30.04 in 6.2 mi Calm Calm - N/A Rain Light Rain
11:15 AM 62.6 °F 59.0 °F 88% 30.06 in 6.2 mi NE 2.2 mph - N/A Rain Light Rain
11:45 AM 64.4 °F 59.0 °F 83% 30.06 in 6.2 mi South 6.7 mph - N/A Rain Light Rain
12:15 PM 64.4 °F 59.0 °F 83% 30.06 in 6.2 mi West 2.2 mph - N/A Rain Light Rain
12:45 PM 66.2 °F 59.0 °F 78% 30.06 in 6.2 mi NNW 11.2 mph - N/A Rain Light Rain
1:15 PM 66.2 °F 57.2 °F 73% 30.06 in 6.2 mi North 13.4 mph - N/A   Mostly Cloudy
1:45 PM 66.2 °F 55.4 °F 68% 30.06 in 6.2 mi NNW 11.2 mph - N/A   Mostly Cloudy
2:15 PM 66.2 °F 57.2 °F 73% 30.06 in 6.2 mi North 11.2 mph - N/A   Mostly Cloudy
2:30 PM 66.2 °F 55.4 °F 68% 30.06 in 6.2 mi North 11.2 mph - N/A Rain Light Rain
2:45 PM 64.4 °F 55.4 °F 73% 30.09 in 6.2 mi NNW 13.4 mph - N/A Rain Light Rain
3:15 PM 66.2 °F 55.4 °F 68% 30.09 in 6.2 mi NNW 11.2 mph - N/A Rain Light Rain
3:19 PM 66.2 °F 55.4 °F 68% 30.09 in 6.2 mi NNW 11.2 mph - N/A   Mostly Cloudy
3:45 PM 66.2 °F 55.4 °F 68% 30.09 in 6.2 mi North 13.4 mph - N/A   Mostly Cloudy
4:15 PM 66.2 °F 55.4 °F 68% 30.09 in 6.2 mi North 8.9 mph - N/A   Mostly Cloudy
4:45 PM 66.2 °F 55.4 °F 68% 30.09 in 6.2 mi North 8.9 mph - N/A   Mostly Cloudy
5:15 PM 66.2 °F 55.4 °F 68% 30.09 in 6.2 mi North 4.5 mph - N/A   Mostly Cloudy
5:45 PM 66.2 °F 55.4 °F 68% 30.09 in - North 4.5 mph - N/A   Clear
6:15 PM 64.4 °F 57.2 °F 77% 30.09 in - ENE 2.2 mph - N/A   Clear
6:45 PM 64.4 °F 57.2 °F 77% 30.09 in - Calm Calm - N/A   Clear
7:15 PM 62.6 °F 59.0 °F 88% 30.09 in - SW 2.2 mph - N/A   Clear
7:45 PM 62.6 °F 59.0 °F 88% 30.09 in - SW 2.2 mph - N/A   Clear
8:15 PM 60.8 °F 59.0 °F 94% 30.09 in - West 2.2 mph - N/A   Clear
8:45 PM 60.8 °F 59.0 °F 94% 30.12 in - SE 2.2 mph - N/A   Clear
8:49 PM 60.8 °F 59.0 °F 94% 30.12 in 6.2 mi SE 2.2 mph - N/A Rain Light Rain
9:04 PM 60.8 °F 59.0 °F 94% 30.12 in - SSE 2.2 mph - N/A   Clear
9:15 PM 60.8 °F 59.0 °F 94% 30.12 in - SSW 2.2 mph - N/A   Clear
9:45 PM 60.8 °F 59.0 °F 94% 30.12 in - Calm Calm - N/A   Clear
10:15 PM 60.8 °F 59.0 °F 94% 30.12 in - WSW 2.2 mph - N/A   Clear
10:45 PM 59.0 °F 59.0 °F 100% 30.12 in - SW 2.2 mph - N/A   Clear
11:15 PM 59.0 °F 59.0 °F 100% 30.12 in - SW 2.2 mph - N/A   Clear
11:45 PM 59.0 °F 59.0 °F 100% 30.12 in - SW 2.2 mph - N/A   Clear